RH
9 9 10 10 10 10 10 10 11 10 10 10 10 10 10 10 10 9 9 9 9 9 9 10 12 14 16 18 19 20 20 20 20 21 24 29 33 38 42 45 48 50 50 56 66 70 70 75 85 93 95 97 99 99 99 100 100 100 100 100 100 100 100 100 100 100 99 100 100 100 101 101 101 100 100 100 100 100 101 101 101 101 101 100 101
10 11 11 12 11 11 12 11 11 11 11 11 11 11 10 10 10 10 9 9 8 9 10 11 13 15 18 20 21 22 22 22 23 25 29 35 41 46 50 53 56 58 59 66 79 85 83 84 90 92 93 97 99 99 100 100 100 100 100 100 100 100 100 100 100 100 100 100 100 100 100 100 100 100 100 100 100 100 100 100 100 101 100 100 100
11 12 13 13 13 13 12 12 12 12 12 12 12 12 11 11 11 10 9 9 9 9 11 12 14 17 20 22 23 23 24 24 27 30 35 42 48 54 58 59 62 67 70 75 83 90 92 93 94 94 94 96 99 100 100 100 100 100 100 100 100 100 100 100 100 100 100 100 100 100 100 100 100 100 101 101 101 100 100 100 100 100 99 96 91
13 14 14 14 14 14 13 13 13 13 13 13 13 12 12 11 11 10 9 9 9 10 12 14 17 20 23 25 26 26 26 28 31 35 42 48 54 59 62 65 68 72 78 83 85 89 93 96 98 98 98 97 98 100 100 100 100 100 100 100 101 101 100 100 100 100 100 100 100 100 100 100 100 101 101 100 100 100 100 100 99 96 91 83 71
16 15 16 16 15 15 15 14 14 14 14 14 13 13 12 11 11 10 10 9 10 12 14 17 20 23 26 28 29 30 30 32 35 40 47 53 59 62 64 68 72 76 83 90 92 92 93 95 97 99 100 100 100 100 100 100 101 100 100 100 101 102 100 100 100 100 100 100 100 101 100 99 100 100 100 100 100 100 99 96 90 82 73 64 54
17 17 17 17 16 16 16 15 15 15 15 15 14 13 12 12 11 10 10 10 12 13 17 21 24 28 31 33 33 33 34 36 39 45 51 57 63 67 69 71 74 80 87 92 94 96 97 97 98 99 100 100 100 100 100 100 100 100 100 100 101 101 101 100 100 100 100 100 100 100 100 100 100 100 100 100 99 95 90 83 73 64 56 50 45
20 19 19 18 17 17 16 16 16 16 16 15 14 14 12 12 11 10 11 11 13 16 19 24 29 33 36 37 37 37 38 41 45 50 55 62 67 72 74 75 77 83 90 93 95 98 98 98 99 100 100 100 100 100 100 100 100 100 101 101 102 101 101 100 100 100 100 100 100 100 100 100 100 100 98 94 89 82 75 68 60 53 47 43 40
22 21 20 18 18 17 17 17 16 16 16 15 15 14 13 12 11 11 12 13 15 18 22 27 33 38 41 42 41 42 43 46 50 56 61 67 72 75 76 76 79 85 91 95 98 99 98 98 99 100 100 100 101 100 100 100 100 100 101 101 101 101 101 100 100 100 100 100 100 100 100 100 99 97 92 84 78 71 63 56 50 44 41 38 36
24 22 20 19 18 17 17 17 17 17 17 16 16 14 13 12 12 12 13 15 18 21 25 31 37 42 46 46 46 47 49 52 57 63 69 72 74 76 77 77 81 88 94 97 99 99 99 99 99 100 100 100 100 100 100 100 100 100 101 100 100 100 100 100 100 100 100 100 101 100 100 99 93 88 81 73 67 60 52 46 41 38 35 33 31
25 23 21 19 19 19 19 18 18 17 17 17 16 15 14 13 13 14 16 17 20 23 28 34 40 45 49 51 51 51 54 58 64 71 76 78 76 76 77 79 84 91 95 98 99 99 99 99 99 100 100 100 100 100 100 100 100 100 100 100 100 100 100 100 100 100 100 100 99 97 93 88 80 73 66 59 53 48 42 38 34 32 30 27 25
28 25 22 21 20 20 20 19 18 18 18 18 16 15 14 14 14 16 18 20 23 26 31 37 43 47 51 54 54 55 57 63 71 78 82 82 79 77 78 82 87 91 95 98 98 98 97 97 99 100 100 100 100 100 100 100 100 101 100 100 100 100 100 100 100 99 98 96 92 86 79 72 65 58 51 46 43 39 34 30 27 25 23 22 20
31 27 24 22 22 22 21 20 19 19 19 18 17 16 15 15 16 17 20 23 26 29 33 40 46 50 53 56 57 58 61 67 75 82 85 84 81 79 80 84 88 92 95 97 97 95 93 95 97 98 99 99 99 99 100 100 100 100 100 100 100 100 100 99 98 95 91 85 79 72 66 60 54 48 43 39 35 31 27 24 22 21 19 19 18
33 29 26 24 24 23 22 21 20 20 20 19 18 16 16 17 18 19 22 25 29 32 35 41 48 53 56 59 60 61 65 72 79 84 86 86 84 82 83 87 90 93 95 94 93 91 90 93 95 97 98 98 99 100 100 100 100 100 100 100 100 100 98 95 91 86 80 73 67 61 55 50 44 39 34 30 26 23 21 19 18 17 16 16 16
35 29 27 27 26 24 24 23 22 21 20 19 18 17 17 19 20 22 24 27 30 33 37 42 50 56 61 64 64 65 70 76 83 87 88 87 86 86 88 91 93 95 93 91 90 89 90 92 94 95 97 98 100 101 100 100 100 100 101 100 98 96 92 86 81 74 67 61 54 48 43 36 31 26 22 20 18 17 17 16 15 15 14 14 15
35 31 30 29 27 26 26 25 24 23 21 20 20 19 19 21 22 24 26 28 31 35 39 45 51 59 64 66 67 70 75 81 86 90 90 89 89 90 93 94 95 94 93 91 90 90 90 92 93 94 95 97 99 100 100 100 100 100 100 97 93 88 82 75 68 61 53 46 39 34 30 25 21 18 16 15 15 15 15 14 14 14 14 14 16
35 34 33 31 29 28 28 26 25 24 23 22 21 21 22 22 23 25 27 30 33 36 42 48 55 61 66 68 71 75 80 85 89 92 92 91 91 93 94 96 96 94 93 93 94 95 96 96 96 96 96 97 99 101 101 100 99 98 95 90 84 77 70 62 54 46 40 34 29 25 21 17 15 14 13 13 13 13 13 13 14 15 16 16 17
37 36 35 33 31 30 29 27 26 25 24 24 24 24 25 24 25 26 29 32 35 39 45 51 58 64 69 72 76 80 84 88 91 93 93 92 94 95 96 97 97 96 95 96 97 99 100 100 101 100 99 99 100 101 101 99 97 94 88 82 74 66 59 51 43 36 30 25 21 17 14 12 11 11 11 12 12 13 13 14 15 16 17 18 18
39 38 37 34 33 32 30 28 27 26 26 26 26 26 27 26 27 28 31 35 38 43 48 54 60 67 73 78 81 84 87 90 92 93 94 94 96 98 98 99 98 96 95 95 94 94 94 96 99 101 102 102 101 101 100 96 93 88 80 72 63 54 46 39 32 26 21 17 14 12 11 10 10 11 11 12 12 13 14 15 16 16 17 18 19
42 40 38 36 34 33 31 29 28 28 27 27 28 28 28 28 28 30 33 37 42 47 53 58 63 69 76 82 85 87 90 92 94 94 94 96 98 99 100 99 97 96 95 93 92 91 91 92 95 97 100 102 101 100 97 92 86 79 70 60 49 40 33 27 22 17 14 12 11 10 10 11 11 11 12 13 13 14 15 15 16 16 16 17 19
43 41 39 38 36 34 31 30 29 29 29 29 29 28 28 28 29 31 35 40 45 52 58 64 68 72 79 84 88 90 92 94 95 95 96 98 99 100 100 98 97 97 96 95 94 95 95 96 97 98 100 102 101 99 95 89 81 71 61 50 40 31 25 20 16 13 12 11 11 11 11 11 12 12 13 13 13 14 14 14 15 15 16 18 19
43 42 40 39 37 34 32 32 32 32 32 31 30 29 29 29 29 32 36 42 49 56 64 69 72 75 80 86 89 91 93 94 95 96 97 99 100 99 99 98 98 98 97 96 96 97 98 99 101 101 101 101 101 98 92 85 76 64 53 43 34 26 20 16 13 12 11 11 11 11 11 11 12 13 13 13 14 13 14 14 14 16 17 18 19
44 42 41 39 37 35 34 35 34 34 33 32 31 30 30 30 31 33 38 45 53 62 69 75 77 79 83 87 90 92 94 95 96 97 97 99 99 99 99 98 98 98 97 97 97 97 97 98 100 102 102 101 100 96 91 82 71 59 48 39 31 23 17 14 12 11 11 11 10 11 11 12 12 13 13 13 14 13 14 14 15 16 17 18 19
43 42 41 39 37 37 37 37 36 34 33 32 31 31 31 31 33 36 41 48 57 66 74 79 82 84 85 88 91 94 95 95 96 97 98 99 99 100 100 99 96 96 96 98 98 98 97 98 99 101 102 101 99 96 89 79 66 55 46 37 28 21 16 14 13 12 11 11 10 11 12 12 12 13 13 13 14 13 14 15 15 17 17 17 18
44 42 40 39 39 38 38 37 36 34 33 32 32 33 33 34 36 39 44 51 60 70 77 83 86 87 89 91 93 95 96 96 97 99 99 100 101 101 100 98 95 95 97 99 100 99 97 98 99 101 102 101 99 95 87 76 65 55 46 36 27 21 17 14 13 12 11 11 12 12 13 13 13 13 13 13 13 13 14 15 16 17 17 17 17
45 43 41 40 40 39 38 37 35 34 34 34 34 35 36 37 40 43 47 54 63 72 79 85 89 91 93 95 97 98 97 97 98 99 100 101 102 101 99 96 95 97 100 101 101 99 98 98 100 102 103 102 99 94 86 76 66 56 45 34 27 22 18 14 12 11 11 12 13 13 13 13 13 13 13 13 14 14 15 16 17 17 18 17 17
46 44 43 42 41 40 38 37 35 34 35 35 36 37 38 40 42 45 51 57 66 74 82 88 93 96 98 99 99 99 98 97 97 98 99 100 101 100 97 97 98 101 103 102 101 100 99 100 101 102 103 102 99 93 85 76 66 54 42 33 27 22 17 13 11 12 12 13 13 13 14 14 14 14 14 13 14 15 16 17 17 17 18 18 18
48 46 45 44 43 41 38 37 35 35 35 36 37 38 39 41 44 48 54 60 68 78 86 92 97 100 101 101 100 99 99 97 97 98 98 98 98 98 98 100 101 102 102 100 100 100 100 100 102 103 102 101 98 93 83 72 61 50 39 32 25 19 15 12 12 12 12 13 14 14 14 15 14 14 14 14 15 16 17 17 18 18 19 20 20
50 48 47 46 44 41 39 37 36 35 35 37 38 39 40 41 44 49 56 64 73 82 90 95 100 102 103 102 101 101 101 99 97 96 93 93 96 98 100 102 103 103 100 97 97 99 99 100 102 103 103 102 99 92 81 68 57 46 37 30 22 16 14 13 13 13 13 13 14 15 15 15 15 14 15 15 15 16 17 18 18 19 20 20 21
51 49 49 47 44 41 39 37 35 35 36 37 38 39 40 42 45 51 59 69 78 86 93 99 102 102 103 102 101 101 102 99 96 93 90 92 97 101 102 104 104 103 101 97 97 99 99 100 101 103 102 101 98 90 79 66 54 43 33 26 20 17 15 14 14 14 14 14 15 15 16 16 15 15 15 16 16 17 18 18 19 20 21 21 21
52 51 50 48 45 42 39 38 36 35 36 37 38 40 41 44 48 55 64 74 82 88 95 100 102 102 102 101 100 101 101 100 98 96 95 96 100 102 103 103 103 103 101 98 98 98 98 99 101 101 101 100 96 88 76 64 52 40 30 23 20 17 16 15 15 14 15 15 15 16 16 16 16 16 16 17 17 18 18 19 20 21 22 22 22
53 53 52 49 46 43 40 38 36 35 35 37 38 41 43 46 51 60 69 78 85 91 97 101 103 102 101 100 100 100 101 101 100 100 100 100 101 102 102 101 101 101 100 99 98 97 96 97 100 101 101 99 94 86 74 61 49 38 30 24 20 18 17 16 15 15 15 15 15 15 16 16 16 17 17 18 19 19 20 21 22 22 22 23 22
54 54 53 50 46 43 40 38 36 35 35 37 39 42 45 49 55 64 73 80 87 94 99 102 102 101 100 100 100 100 101 101 101 100 100 100 101 101 100 100 101 102 102 102 101 97 94 96 98 100 101 99 93 83 71 59 47 37 30 25 21 19 18 17 16 16 15 15 15 16 16 17 17 18 19 20 21 22 22 22 23 23 23 23 23
55 54 53 50 46 43 40 37 36 36 35 37 40 43 48 52 58 66 76 84 92 98 101 101 101 100 100 100 100 100 101 101 101 100 100 100 100 100 100 100 101 102 103 103 102 98 95 96 99 101 102 98 91 80 68 55 44 35 29 24 21 19 18 16 16 16 15 15 16 16 17 18 18 19 20 21 22 24 24 24 24 24 23 23 24
56 55 53 50 46 43 40 38 36 35 35 37 39 43 48 54 60 68 79 89 96 101 102 101 100 100 100 100 100 100 100 101 101 101 100 100 100 100 100 100 101 102 102 101 100 98 97 99 102 103 101 96 87 75 63 51 41 33 27 23 20 19 18 17 16 16 15 16 16 16 17 19 19 20 22 24 24 25 25 25 25 24 24 24 24
58 56 54 51 47 44 41 38 36 35 35 36 37 41 47 53 61 71 82 92 98 101 102 101 100 100 100 100 100 100 100 100 101 101 100 100 100 100 100 100 101 102 101 99 99 97 97 100 102 102 100 94 83 70 58 46 37 30 25 22 19 19 18 17 16 16 16 16 16 17 18 19 20 22 24 25 26 26 26 26 26 25 25 25 24
60 58 56 53 49 47 44 40 38 36 35 35 36 39 44 52 60 72 84 94 99 102 102 101 100 100 100 100 100 100 100 100 101 101 101 100 100 100 100 100 102 102 100 98 97 97 97 99 101 101 99 91 78 64 52 42 34 28 24 21 20 19 19 18 17 16 16 17 17 18 20 20 22 24 25 26 27 27 26 26 26 25 25 25 25
62 60 57 54 53 50 47 45 42 39 37 36 37 38 43 51 60 72 84 95 99 101 101 100 100 100 100 100 100 100 100 100 101 101 101 100 100 100 100 100 101 102 101 99 98 98 98 100 101 100 97 87 72 59 48 39 33 29 24 22 21 20 19 18 17 16 17 18 19 19 21 22 23 25 26 28 27 27 27 27 26 25 26 25 25
64 62 60 58 57 54 52 50 47 43 41 39 38 39 43 50 60 72 84 94 99 100 100 100 100 100 100 100 100 100 100 100 101 101 101 101 100 100 100 100 101 102 101 100 98 98 100 101 101 99 93 81 67 56 46 39 34 29 24 22 21 20 19 18 18 18 18 19 20 21 22 23 25 26 27 28 28 27 27 27 26 26 26 26 26
67 65 63 62 60 58 56 53 50 48 45 42 41 40 43 50 61 73 85 94 99 100 100 100 100 100 100 100 100 100 100 100 100 100 100 101 101 100 100 100 101 102 101 99 96 97 99 100 100 97 89 77 65 55 46 38 33 27 24 22 21 20 19 19 18 19 19 20 21 23 24 25 27 28 28 28 28 27 26 26 27 27 26 26 26
70 68 67 65 62 60 58 55 53 51 48 45 44 43 45 54 64 75 86 96 101 101 100 100 100 100 100 100 100 100 100 100 100 100 100 100 100 100 100 101 101 101 100 98 96 96 98 99 98 95 86 74 63 53 44 37 31 26 23 22 21 20 20 19 19 19 21 22 23 24 26 27 28 28 28 28 27 27 26 27 27 27 27 27 24
73 70 68 66 64 62 60 58 56 54 51 49 48 47 50 58 67 78 89 99 102 101 100 100 100 100 100 100 100 100 100 100 100 100 100 100 100 100 101 101 101 100 99 97 96 97 100 100 97 91 82 71 60 49 41 35 30 26 24 23 22 21 20 20 21 21 22 23 25 26 28 29 28 28 28 28 27 27 27 27 27 28 26 24 21
72 70 69 67 65 64 63 61 60 57 55 54 53 53 55 62 73 86 96 102 102 101 100 100 100 100 100 100 100 100 100 100 100 100 100 100 100 100 100 100 99 97 96 96 97 100 102 100 95 86 76 66 55 46 40 35 30 26 24 23 22 22 21 21 22 24 24 26 28 29 29 29 28 28 28 27 27 27 27 27 28 27 23 20 20
70 69 69 69 67 67 66 65 64 63 61 59 59 59 62 70 82 94 101 101 101 100 100 100 100 100 100 100 100 100 100 100 100 100 100 100 100 100 100 100 98 96 96 98 100 101 100 97 90 81 70 61 52 45 39 34 30 26 25 24 22 22 22 22 24 25 27 29 31 30 29 29 28 28 28 27 27 27 28 27 26 22 19 19 20
69 69 69 69 68 69 69 68 68 67 66 66 67 69 73 81 91 98 101 100 100 100 100 100 100 100 100 100 100 100 100 100 100 100 100 100 100 101 101 99 98 97 99 100 100 100 98 93 84 75 65 57 50 43 37 32 29 26 25 25 23 23 24 24 26 28 31 32 31 30 30 29 28 27 27 27 27 27 27 24 21 18 18 19 20
66 66 66 67 69 70 71 72 73 73 74 76 78 82 87 92 97 100 100 100 100 100 100 100 100 100 100 100 100 100 100 100 100 100 100 100 102 102 101 99 98 98 100 100 99 98 96 88 78 70 62 54 47 40 34 31 28 26 25 25 25 25 26 27 29 32 33 32 32 31 29 28 28 27 27 27 27 26 23 19 17 18 18 19 22
60 62 65 67 69 72 75 77 79 82 85 88 92 95 98 99 100 101 100 100 100 100 100 100 100 100 100 100 100 100 100 100 100 100 100 101 102 102 100 99 99 99 99 99 99 97 92 83 73 64 57 50 44 38 33 30 28 26 25 25 25 26 28 30 32 34 33 32 31 30 28 28 27 26 27 27 25 22 18 16 16 18 19 20 22
61 64 66 69 72 76 79 83 87 92 96 99 100 101 101 100 100 100 100 100 100 100 100 100 100 100 100 100 100 100 100 100 100 100 100 101 102 101 99 98 99 98 98 98 97 93 86 77 67 59 52 46 41 36 32 30 27 26 26 27 27 29 32 34 34 34 33 32 31 29 28 27 27 26 26 25 21 17 16 16 16 18 19 20 21
65 67 70 73 76 80 85 90 96 100 101 101 100 100 100 100 100 100 100 100 100 100 100 100 100 100 100 100 100 100 100 100 100 100 100 100 101 100 98 97 96 97 97 96 93 88 80 71 62 54 48 42 38 34 31 29 27 27 28 29 30 33 35 35 34 34 33 31 31 30 28 27 26 25 24 21 16 14 15 16 16 18 19 18 21
67 70 74 77 81 85 89 95 100 101 101 100 100 100 100 100 100 100 100 100 100 100 100 100 100 100 100 100 100 100 100 100 100 100 100 100 99 98 97 96 96 96 96 93 89 83 75 66 57 50 44 39 35 32 29 28 28 28 29 31 34 36 36 35 34 33 32 31 30 29 27 26 26 24 20 16 14 14 15 16 17 17 16 18 22
69 73 77 80 83 86 89 93 96 98 99 100 100 100 100 100 100 100 100 100 100 100 100 100 100 100 100 100 100 100 100 100 100 100 100 100 99 98 97 97 97 96 93 89 84 78 70 61 53 47 41 37 33 31 29 29 29 30 32 34 36 36 36 35 34 33 32 31 29 28 27 26 23 19 16 14 14 14 15 16 15 15 17 21 23
73 76 80 83 85 86 88 90 92 95 97 99 100 100 100 100 100 100 100 100 100 100 100 100 100 100 100 100 100 100 100 100 100 101 100 100 99 99 99 98 97 94 90 86 80 73 65 57 49 44 39 35 33 31 31 31 31 33 35 36 37 36 35 35 34 32 32 30 28 27 26 23 18 15 14 14 14 14 14 14 14 16 19 21 25
Wind_Speed
23 23 23 23 23 23 24 24 24 25 25 26 26 27 28 29 30 31 32 33 35 35 36 36 36 36 36 36 36 36 36 36 36 36 36 36 36 37 37 37 37 36 36 37 36 35 34 33 33 34 35 36 36 37 38 38 38 37 37 36 36 36 36 36 36 36 35 33 32 31 30 30 30 29 28 28 28 28 28 29 29 29 29 28 28
24 24 24 24 24 24 24 25 25 25 26 26 27 28 29 30 31 32 34 35 36 36 36 36 36 36 36 36 36 36 36 36 36 36 36 36 36 37 37 37 37 36 35 34 34 34 32 31 31 32 33 34 34 34 34 35 34 33 32 32 32 32 32 31 31 30 30 29 29 28 27 27 27 27 27 27 28 28 28 28 27 27 27 26 26
24 25 24 24 24 24 25 25 25 26 26 27 28 29 30 31 32 33 34 35 36 36 36 37 37 37 36 36 36 35 35 35 36 36 36 36 36 37 37 37 37 36 34 33 33 33 32 30 30 30 31 32 32 32 31 32 31 31 29 28 28 28 28 28 27 27 26 26 26 26 26 26 26 26 26 27 27 27 27 26 26 25 25 24 24
25 25 25 25 25 25 25 25 26 27 27 28 29 30 31 32 33 34 35 36 36 36 36 37 37 37 36 36 35 35 35 35 35 36 36 36 36 37 38 38 37 36 34 33 32 32 32 30 29 29 30 31 31 30 29 29 29 28 26 25 25 25 25 25 25 24 24 24 24 25 25 26 26 26 26 26 26 25 25 24 24 24 23 23 22
25 25 25 25 25 25 25 26 27 27 28 29 30 31 32 33 35 35 36 36 36 36 36 36 36 36 35 35 35 34 34 35 35 35 35 35 36 36 37 37 37 36 35 33 32 31 31 29 28 29 29 29 29 28 27 27 26 26 25 24 24 23 24 24 24 23 23 23 24 24 25 25 25 24 24 24 24 24 23 23 22 22 22 22 21
25 25 26 26 26 26 26 27 28 29 30 31 32 33 34 35 36 36 36 36 36 36 36 36 36 35 35 34 34 34 35 35 35 35 35 35 35 35 36 36 36 35 33 32 31 30 29 28 27 27 27 27 26 26 25 24 24 23 23 23 22 22 23 23 23 23 23 23 23 23 24 24 23 23 23 23 22 22 22 21 20 20 21 22 22
27 27 27 27 26 27 27 28 29 30 31 32 33 34 35 36 36 36 36 36 35 35 35 35 35 34 34 34 34 34 34 35 35 35 35 35 35 34 34 34 33 32 30 29 28 28 27 27 26 25 24 24 24 23 23 22 22 22 22 22 22 22 22 22 22 22 22 22 22 22 22 22 22 21 21 21 20 20 20 20 20 20 20 21 22
29 28 28 28 28 28 28 29 30 31 32 33 34 35 36 36 36 36 36 35 35 35 35 35 34 34 33 33 33 34 34 35 35 35 35 34 34 33 32 31 30 28 27 26 25 25 25 25 24 23 22 22 22 22 22 21 21 21 21 22 21 21 21 21 21 21 21 21 21 21 20 20 19 19 19 19 19 19 18 18 19 20 21 23 24
30 30 29 29 29 29 30 30 31 32 33 34 35 35 36 36 36 36 35 35 35 35 35 34 34 33 33 33 33 33 34 34 34 34 34 33 32 31 30 29 27 25 24 23 23 23 23 22 22 21 21 21 21 21 21 21 21 21 21 21 21 21 21 21 20 20 20 20 20 19 19 18 17 17 17 17 18 18 17 18 18 19 21 23 25
32 31 30 30 30 30 31 31 32 33 34 35 35 35 35 35 35 35 35 35 35 35 34 34 34 33 33 33 33 33 34 34 33 33 33 32 31 29 28 26 24 23 22 22 22 21 21 21 20 20 20 21 21 21 21 21 21 21 21 21 20 20 20 20 20 19 19 18 18 17 17 16 16 16 16 17 18 18 18 18 19 20 21 23 25
34 33 32 31 31 32 32 32 33 34 34 35 35 35 35 35 35 34 34 34 35 35 34 34 34 33 33 32 33 33 33 33 33 32 31 30 29 28 26 24 23 22 21 21 21 21 20 20 20 20 20 21 21 21 21 21 20 20 20 20 19 19 19 19 18 18 17 17 16 16 15 15 15 15 16 17 18 19 19 20 20 21 22 23 25
37 35 33 33 33 33 33 33 34 35 35 35 36 35 35 35 35 34 34 34 34 34 34 34 34 34 33 32 33 33 33 33 32 31 30 29 28 26 24 23 22 21 21 20 20 20 20 20 19 19 20 20 21 21 20 19 19 19 19 18 18 18 17 17 17 16 16 15 15 15 15 15 15 16 17 18 19 19 20 21 22 22 24 25 26
39 36 35 34 34 34 34 34 35 35 36 36 36 36 35 35 34 34 33 33 34 34 34 34 34 34 33 32 32 33 33 33 32 30 29 27 26 24 23 22 21 20 20 19 19 20 20 20 19 18 19 20 20 20 19 19 18 18 17 17 17 17 16 16 16 15 15 14 14 15 15 16 16 16 17 19 19 20 20 21 22 23 25 27 28
40 37 36 36 35 35 35 35 35 36 36 36 36 35 35 34 34 34 33 33 34 34 34 34 34 33 33 32 32 32 32 32 31 29 27 25 24 22 21 20 20 19 19 18 18 19 19 19 19 18 18 19 19 19 19 18 18 17 17 16 16 16 16 15 15 15 14 14 14 15 16 17 17 17 18 19 20 20 21 22 23 24 25 27 30
40 38 37 36 36 36 36 36 36 36 36 35 35 35 34 34 34 34 33 33 33 34 34 34 33 33 33 32 32 32 31 31 29 27 25 23 21 20 19 19 19 18 18 17 17 18 18 19 18 18 17 18 18 19 19 18 18 17 16 16 16 16 16 15 15 15 14 14 15 16 17 17 18 18 18 20 21 21 22 23 24 25 26 27 30
40 39 38 37 37 37 36 36 36 36 35 35 34 34 34 34 33 33 33 33 33 34 34 34 33 33 33 32 32 31 31 30 28 25 23 21 20 19 18 18 17 17 17 16 16 16 18 18 18 18 17 17 17 18 18 17 17 16 15 15 16 16 16 15 15 15 15 15 16 17 17 18 19 19 19 20 22 23 24 24 25 26 27 28 30
40 39 38 38 37 37 37 36 36 36 35 35 34 34 33 34 33 33 33 33 33 34 34 34 33 33 32 32 31 31 30 29 27 24 22 20 18 18 17 17 16 16 16 15 15 16 18 18 18 18 17 17 17 17 17 17 17 16 16 15 15 16 16 16 15 15 16 16 16 17 18 19 20 21 21 21 22 23 25 26 27 29 30 32 32
40 39 38 38 37 37 37 37 36 36 35 35 34 34 34 34 33 33 33 33 33 33 34 34 33 32 32 31 31 30 29 28 25 22 20 19 18 17 17 17 16 15 15 16 16 17 18 19 19 18 17 17 17 16 16 16 16 16 16 15 15 16 16 16 16 16 16 17 17 18 19 20 20 21 22 22 23 24 26 27 29 31 33 35 36
39 38 38 37 37 37 37 36 36 35 35 35 34 34 34 34 34 33 33 33 33 33 33 34 33 32 31 31 30 30 29 26 23 21 19 18 17 17 17 17 16 15 15 15 16 17 18 18 18 18 18 17 17 16 16 16 16 16 16 15 15 16 17 17 17 17 17 18 18 19 20 20 21 22 22 23 24 26 27 29 30 32 34 36 39
38 37 37 37 36 36 36 35 35 35 35 35 34 34 34 35 34 34 33 33 32 33 33 33 33 32 31 30 30 29 28 25 22 20 19 18 18 17 17 17 16 15 14 15 16 18 18 18 17 17 17 17 16 16 16 16 16 16 15 15 16 17 17 18 18 19 19 19 19 20 21 21 22 23 23 24 26 27 29 30 32 34 35 37 39
37 36 36 35 35 35 35 35 34 34 34 35 35 35 35 35 35 34 33 32 32 32 32 33 32 31 31 30 29 29 27 25 22 20 19 18 18 18 17 17 16 15 15 16 17 18 19 19 18 17 16 16 16 16 16 16 16 16 16 16 16 17 18 19 19 20 20 20 20 21 22 22 23 24 25 26 27 29 31 33 34 35 37 38 40
35 35 35 34 34 34 34 34 34 35 35 35 35 35 35 35 35 34 33 32 32 32 32 32 31 31 30 30 29 28 27 25 22 20 19 19 18 18 18 17 16 15 15 16 17 18 19 19 19 18 17 16 16 16 16 16 16 16 16 17 17 18 19 19 20 21 21 21 21 21 22 23 24 25 27 28 29 31 33 35 36 37 38 39 42
34 34 34 34 34 34 34 34 34 35 36 36 36 35 35 35 35 34 33 32 32 32 32 32 31 30 30 29 29 28 26 25 22 21 20 19 19 19 18 18 17 16 16 17 17 18 19 20 19 18 18 17 16 16 16 16 16 16 17 17 18 19 20 20 20 21 21 21 21 22 23 24 25 27 28 30 31 32 34 35 37 38 39 40 41
34 34 34 34 34 34 34 34 35 36 36 36 36 35 35 35 34 34 33 32 31 31 31 31 30 30 30 29 28 27 26 24 22 21 20 20 19 19 18 18 18 17 17 17 18 19 20 20 20 19 18 18 17 17 17 16 16 17 17 18 19 19 20 20 20 21 21 21 22 22 23 24 25 27 28 30 32 32 34 35 37 38 39 39 40
34 34 34 34 34 34 35 35 36 36 36 36 36 35 35 34 34 33 33 32 31 31 31 31 30 30 29 29 28 27 25 24 22 20 20 20 21 20 19 18 18 18 18 18 19 19 20 21 20 19 19 18 18 18 17 17 17 17 18 19 19 19 20 20 20 21 21 21 22 23 24 25 26 27 29 31 32 33 34 35 37 38 39 39 38
34 34 34 34 34 34 35 35 36 36 36 36 36 35 35 34 34 33 33 32 32 31 31 31 30 30 29 29 28 27 25 24 22 21 21 22 22 21 20 19 18 18 18 19 19 20 20 21 20 19 19 19 18 18 18 18 18 18 19 19 19 20 20 20 20 21 21 22 22 23 24 25 27 28 30 32 33 34 35 35 36 37 38 39 38
34 34 34 34 34 34 35 35 36 36 36 36 36 35 35 34 34 34 33 33 32 31 31 30 30 30 29 28 28 27 26 25 23 22 22 23 23 22 20 18 17 18 19 19 20 20 21 21 20 19 19 19 19 19 18 18 19 19 19 19 19 20 20 20 21 21 21 22 23 23 25 26 28 29 31 32 34 36 37 37 38 38 39 40 40
35 35 34 34 34 35 35 35 36 36 36 36 36 36 35 35 34 34 34 33 32 31 31 30 30 30 29 29 28 27 26 26 25 24 23 24 23 22 20 18 18 19 19 19 20 20 21 21 20 19 19 19 19 19 19 19 19 19 19 19 20 20 20 21 21 21 22 22 23 24 25 27 29 30 31 32 34 36 38 39 40 40 41 42 42
36 35 35 34 35 35 35 35 36 36 36 36 36 36 35 35 34 34 33 33 32 31 31 30 30 30 29 28 28 27 26 27 27 25 23 22 22 21 20 19 19 19 19 19 20 20 20 21 20 19 19 19 19 19 19 19 19 19 19 20 20 20 20 21 21 22 22 23 24 25 26 28 30 31 32 32 34 36 38 40 41 42 42 43 44
36 35 35 35 35 35 35 35 35 35 35 36 36 36 36 35 35 34 33 33 32 31 31 30 30 30 29 28 28 27 26 27 27 24 22 21 22 22 21 20 20 20 19 19 20 20 20 20 20 19 19 19 19 19 19 19 19 19 20 20 20 20 21 21 22 22 23 24 25 26 27 28 30 31 32 33 33 35 37 40 41 43 44 45 45
36 35 35 34 35 35 35 35 35 35 35 35 36 36 36 35 35 34 33 33 32 31 31 30 30 30 29 28 28 27 26 26 26 24 22 22 22 22 22 21 20 20 20 20 20 20 20 20 19 19 19 19 19 19 19 19 19 20 20 20 20 21 21 22 22 23 24 25 26 28 29 30 31 32 33 34 34 35 37 39 41 43 44 45 46
36 35 35 35 35 35 35 35 35 35 35 35 35 36 36 36 35 34 33 33 32 31 31 31 30 30 29 29 28 27 26 26 26 24 23 23 23 23 22 22 21 20 20 20 21 21 21 20 19 19 18 19 19 19 19 19 19 20 20 20 20 21 21 22 23 24 25 26 27 28 30 31 32 33 34 35 36 37 38 39 41 43 44 45 46
36 35 35 35 35 35 35 35 35 35 35 35 35 35 35 36 36 35 33 32 31 31 31 31 31 30 30 29 28 27 26 26 26 25 24 24 24 24 23 22 21 21 21 21 21 21 21 21 20 19 18 19 19 19 19 19 20 20 20 21 21 22 22 22 24 25 26 26 27 28 30 32 33 34 35 36 38 39 40 41 42 43 45 46 47
36 35 35 35 35 35 35 35 35 34 35 35 35 35 35 35 36 35 33 31 30 30 31 31 31 31 30 30 29 28 27 27 26 26 25 25 25 25 24 23 22 22 22 22 22 22 22 21 20 19 19 19 19 19 19 19 20 20 20 21 22 23 23 24 25 25 26 27 28 29 31 32 34 35 36 36 38 39 40 42 43 44 45 47 48
36 35 35 35 35 35 35 35 35 35 35 35 35 35 35 35 35 34 33 31 30 30 30 31 31 31 31 31 30 30 29 28 27 27 26 26 26 25 24 23 22 23 22 22 22 22 22 21 20 19 19 19 19 19 19 20 20 20 20 21 22 23 24 25 26 26 26 27 28 30 31 33 34 36 37 37 38 40 41 42 43 45 46 48 49
35 35 35 35 35 35 36 36 36 36 36 35 35 34 34 34 34 34 33 31 30 30 31 31 31 31 31 30 30 30 29 28 27 27 27 26 26 25 24 23 23 23 23 22 22 22 21 21 19 19 19 19 19 19 19 20 20 20 20 21 22 24 25 26 26 26 27 28 29 30 32 33 35 37 38 38 39 41 42 43 44 45 46 49 50
36 36 36 36 36 36 37 37 37 37 36 36 36 35 34 34 34 33 33 31 31 31 31 31 32 31 30 29 30 29 28 28 27 27 27 26 26 25 25 25 24 23 22 23 22 22 21 19 18 18 18 19 19 19 19 20 20 20 21 22 22 24 25 26 27 27 27 28 30 31 32 34 35 37 38 39 40 41 42 43 45 46 46 48 51
37 37 37 37 37 38 38 38 38 38 38 37 36 36 35 34 34 33 32 32 31 31 31 31 31 30 29 29 29 28 28 27 27 26 26 25 25 26 26 25 24 23 23 23 23 22 20 19 17 18 18 19 19 19 19 20 20 21 21 22 23 24 25 26 27 27 28 29 30 31 32 34 35 37 38 40 41 42 42 43 45 46 47 48 49
38 38 39 39 39 39 40 40 40 39 39 38 38 37 36 35 33 33 32 32 31 30 31 31 31 30 29 29 28 27 27 27 26 25 25 26 26 26 25 25 24 23 23 23 23 21 20 18 17 18 18 19 19 19 20 20 21 21 21 22 23 24 26 26 27 28 29 29 30 32 33 34 36 37 38 40 41 42 43 44 45 47 48 49 50
40 40 40 41 41 41 41 41 41 41 41 40 39 38 37 35 34 33 32 31 30 30 30 31 30 30 29 29 28 27 26 26 26 25 26 26 25 25 25 24 24 24 24 24 22 21 19 18 18 18 18 19 19 19 20 20 20 21 21 22 23 24 26 27 28 28 29 30 31 32 33 35 36 37 38 39 41 42 43 44 45 46 48 50 51
41 41 42 42 42 43 43 43 43 43 42 41 40 38 37 36 35 33 32 31 30 30 30 30 30 29 29 28 27 26 26 26 25 25 25 25 24 25 25 24 24 24 24 23 22 20 19 18 18 18 19 19 19 19 19 20 20 21 21 22 23 24 25 27 28 29 29 30 31 32 33 34 36 37 38 39 40 42 43 44 45 46 48 49 51
42 43 43 43 44 44 44 44 44 43 43 42 41 39 38 37 35 33 32 31 30 29 29 29 29 29 29 28 27 26 25 25 25 24 24 24 24 25 25 25 24 24 24 23 21 19 18 18 19 19 19 19 19 19 19 19 20 20 21 22 23 24 25 27 28 29 30 30 31 32 33 34 36 37 38 39 40 41 42 43 45 46 48 49 50
44 44 44 45 45 45 44 44 44 43 43 42 41 39 38 36 34 33 32 31 30 29 28 28 28 28 28 27 26 25 24 24 24 24 24 24 24 24 24 24 24 23 23 21 19 18 18 18 19 19 19 19 18 18 19 19 20 20 21 22 23 24 25 27 28 29 30 30 31 32 33 34 35 36 37 38 39 40 41 43 44 46 47 49 50
45 45 45 45 45 44 44 44 43 43 42 41 40 39 37 35 34 32 32 31 30 28 27 27 27 27 27 26 25 24 23 23 23 23 24 24 24 24 24 24 23 22 21 20 18 18 18 18 18 19 19 18 18 18 19 19 20 20 21 22 23 24 25 27 28 29 30 30 31 32 33 34 35 36 37 38 39 40 41 43 44 45 46 48 49
45 44 44 43 43 43 42 42 41 41 40 39 38 37 36 34 33 32 31 30 29 28 27 26 26 26 26 24 23 23 23 23 23 24 24 24 23 23 23 23 22 21 20 18 18 17 18 18 18 18 18 18 18 18 18 19 19 20 21 21 22 24 25 26 27 28 30 30 31 32 33 33 34 35 36 37 39 41 42 42 44 46 47 48 49
43 42 42 41 41 40 40 40 39 39 38 37 35 34 33 32 31 30 30 29 28 27 27 26 26 26 25 24 23 23 23 23 24 24 23 23 22 22 22 21 21 20 19 18 17 17 17 18 18 18 18 18 18 18 18 19 19 20 21 21 22 23 25 26 27 28 29 31 31 32 32 33 34 35 36 38 39 40 41 42 44 45 47 48 49
39 39 38 38 39 38 38 38 37 36 35 34 33 32 31 31 30 29 28 28 27 26 26 26 25 25 24 23 23 23 23 23 23 23 23 22 22 21 21 20 19 19 18 17 17 17 17 17 17 17 18 18 18 18 18 19 19 20 21 22 22 23 25 26 27 28 30 30 31 32 32 33 34 35 36 38 39 40 41 42 43 45 46 47 49
35 35 36 36 36 36 36 35 34 33 32 31 30 29 29 28 28 27 27 26 26 26 26 26 25 25 24 24 24 23 23 23 23 22 22 22 21 20 20 19 18 17 17 17 16 17 16 16 17 17 17 17 17 18 18 18 19 20 21 22 23 24 25 26 27 29 30 30 31 32 33 33 34 35 36 37 38 40 41 42 43 44 45 47 48
32 33 33 33 33 33 33 32 31 30 29 28 27 27 27 26 26 25 25 25 25 25 25 25 25 24 24 24 23 23 23 22 22 22 21 21 20 19 18 18 17 17 17 16 16 16 16 16 16 17 17 17 17 17 18 19 19 20 21 22 23 24 25 26 27 29 29 30 31 32 33 33 34 35 36 37 38 39 41 42 43 44 45 46 48
30 30 30 30 30 30 30 29 28 27 26 25 25 24 24 24 24 23 23 23 23 24 24 24 24 23 23 23 22 22 21 21 21 20 20 19 19 18 17 17 17 17 16 16 16 16 16 16 16 16 16 16 16 17 17 18 19 20 21 22 23 24 25 26 28 29 29 30 31 31 33 33 34 34 35 37 38 39 40 41 42 44 45 46 48
27 27 27 27 27 27 26 25 24 23 23 22 22 22 22 22 22 21 21 21 21 22 22 22 22 22 22 21 21 20 20 20 20 20 19 18 18 17 17 17 16 16 16 16 16 16 16 16 15 15 15 16 16 16 17 18 19 20 21 22 23 24 25 26 27 28 29 30 31 31 32 33 33 34 35 36 37 38 39 40 42 43 44 47 49
Wind_Direction
314 315 316 317 318 318 318 318 318 318 318 319 319 319 320 320 320 321 321 320 319 317 317 317 317 316 315 314 313 311 309 307 306 305 305 305 306 305 305 305 304 302 298 293 290 289 291 292 291 289 289 288 286 285 285 286 285 284 283 282 280 279 279 278 278 278 278 277 278 278 278 278 279 278 278 277 276 276 276 276 276 276 277 277 278
313 314 316 317 317 318 317 317 317 317 318 318 318 319 319 319 320 320 320 319 318 317 317 317 317 316 315 314 313 311 309 307 306 305 305 305 305 305 305 304 304 303 300 295 289 287 287 289 290 290 290 289 288 287 286 285 284 282 282 281 281 280 279 279 278 277 277 278 278 278 278 278 278 278 277 277 278 278 278 278 278 278 279 280 280
312 313 315 316 316 316 315 315 316 316 317 317 318 318 318 318 319 319 319 318 317 317 317 317 317 317 316 314 313 312 310 308 307 306 306 305 305 304 303 302 302 301 300 297 292 288 287 287 289 290 291 290 289 288 286 284 282 281 280 279 279 278 278 277 276 276 277 277 277 278 278 278 278 278 278 278 279 279 280 280 280 280 281 282 283
311 312 313 313 314 313 313 314 315 316 317 317 317 318 318 318 319 318 318 317 317 317 317 317 317 317 316 315 314 313 311 310 309 308 307 306 304 302 300 299 298 297 296 296 296 293 290 289 290 291 292 291 290 288 286 283 281 279 278 277 276 275 275 275 275 275 276 276 277 278 278 278 278 278 279 279 279 279 279 279 279 280 280 280 282
310 310 311 311 312 312 313 314 315 315 317 317 317 318 318 319 318 317 317 317 317 318 317 317 317 317 316 315 314 313 312 311 311 310 309 307 304 302 299 297 296 295 293 294 296 297 295 293 293 292 292 290 288 286 284 282 281 279 278 276 275 275 274 274 275 275 276 277 278 278 278 278 279 279 279 279 279 278 279 279 280 281 282 282 283
310 310 311 311 312 313 313 313 315 316 317 317 318 318 318 318 317 316 317 317 318 318 318 318 318 317 316 315 314 314 313 313 312 312 311 309 306 302 299 297 297 296 295 295 297 297 295 293 291 290 288 287 285 284 282 281 280 279 278 277 277 277 276 276 277 278 278 279 279 279 279 279 279 279 278 278 278 278 279 279 279 280 282 284 286
311 311 312 312 312 313 313 314 315 316 316 317 317 317 316 316 315 315 317 317 318 319 318 318 318 317 316 315 315 315 314 314 314 313 312 310 307 303 300 299 299 300 299 300 299 297 294 291 289 286 285 284 283 282 281 280 281 281 281 280 280 280 280 280 280 280 280 280 279 279 278 278 277 277 277 277 278 279 281 282 283 285 287 289 292
314 313 313 313 313 313 313 314 314 315 316 316 316 315 314 314 314 316 317 318 318 319 319 318 318 317 316 316 316 316 316 316 315 314 312 310 307 303 300 300 300 301 302 301 298 295 292 290 287 285 285 283 283 282 282 282 282 283 283 283 283 284 283 283 282 281 280 279 278 277 276 276 276 276 277 278 278 279 282 287 291 295 296 296 297
314 313 313 314 314 313 313 313 314 314 314 314 313 313 312 313 315 316 317 318 319 319 319 319 318 317 316 316 316 316 317 317 316 314 312 310 308 303 301 301 301 302 301 298 295 293 290 288 287 286 286 285 284 285 285 285 285 285 286 286 286 285 284 283 281 280 279 278 277 276 276 275 276 276 278 280 281 285 289 291 293 294 294 296 298
314 313 313 314 313 313 313 313 313 313 313 312 312 311 312 313 315 316 317 318 318 318 318 318 317 317 316 316 316 316 317 317 316 314 311 310 307 304 302 301 301 300 298 294 292 290 288 288 287 287 287 287 287 288 287 287 287 287 287 287 287 286 284 283 282 281 280 279 278 278 278 279 281 282 285 287 288 291 294 294 294 294 295 297 299
314 313 313 313 313 313 313 313 312 312 311 311 311 311 312 314 315 316 316 317 317 318 318 318 317 316 316 316 316 316 316 316 315 313 310 308 306 304 301 300 298 296 294 292 290 289 288 288 289 290 291 291 291 291 290 290 290 289 288 287 286 285 284 283 282 281 280 280 281 282 284 286 288 290 292 292 293 294 295 296 297 298 298 298 299
314 313 313 313 313 313 313 312 312 311 311 310 311 311 312 313 314 315 316 316 316 317 317 317 316 316 316 315 315 315 315 315 314 312 308 306 305 303 300 298 295 293 291 290 289 289 290 290 291 294 295 295 295 293 292 292 291 289 288 287 286 284 283 282 281 280 281 282 284 286 288 290 291 293 294 293 294 296 297 299 300 300 301 303 304
313 312 313 313 313 313 312 311 311 311 310 310 310 311 312 313 314 315 315 315 315 316 316 316 316 315 315 315 314 314 314 313 313 311 307 304 303 301 299 296 293 290 289 290 291 291 292 293 295 297 298 298 297 295 294 292 291 290 289 287 286 284 283 282 282 283 284 286 289 291 291 292 293 294 294 294 295 298 300 301 303 305 308 309 309
311 312 312 312 312 312 312 311 310 310 310 309 309 310 311 312 313 313 314 314 314 315 315 315 315 314 314 313 313 312 312 311 311 309 306 303 301 299 297 294 291 290 290 291 292 293 294 296 298 300 300 300 298 297 295 293 292 291 289 288 286 284 283 284 285 287 289 292 293 294 294 294 295 295 296 296 298 301 303 306 308 309 310 310 309
310 311 312 312 312 311 311 310 310 309 309 308 308 309 310 311 311 312 313 313 314 314 314 314 314 313 312 312 311 311 310 309 308 307 304 300 298 295 292 290 288 288 289 291 293 295 296 298 299 301 301 300 299 297 295 294 293 291 289 288 286 285 286 287 289 290 292 294 294 293 293 294 295 297 299 301 304 306 307 307 307 306 306 307 308
309 311 311 311 311 311 310 309 309 308 307 307 307 308 309 309 310 311 312 312 312 313 313 313 313 312 311 310 310 309 308 307 306 305 301 297 293 290 287 285 284 286 287 289 293 295 297 298 299 300 300 299 297 296 294 293 291 289 288 286 286 286 287 288 290 292 294 294 294 294 295 297 300 302 304 305 306 306 305 305 305 305 306 308 311
309 310 310 310 310 310 309 308 308 307 306 306 307 307 308 308 309 310 310 311 311 312 312 312 312 311 309 309 308 308 306 305 305 303 298 294 290 286 283 280 280 283 285 289 294 298 300 302 302 302 301 298 296 294 293 291 289 287 286 286 286 287 289 291 292 294 295 296 297 298 300 302 303 304 305 304 303 303 303 305 307 309 310 312 313
309 309 309 309 309 308 307 307 306 305 305 306 306 307 307 307 308 309 309 310 310 311 311 311 310 309 308 307 307 306 305 303 302 299 294 290 285 281 278 276 277 281 286 292 298 302 306 308 307 305 302 298 295 292 290 289 287 287 287 287 287 289 291 293 294 295 297 299 301 302 302 302 302 302 303 303 303 304 306 309 312 314 314 315 314
308 308 308 308 307 307 306 305 304 304 304 305 306 307 307 307 308 308 309 309 309 309 309 309 309 308 306 306 306 305 303 302 299 295 289 284 279 275 273 274 276 281 286 292 299 304 307 308 308 305 301 297 294 291 289 288 286 286 286 288 290 291 292 294 296 297 299 300 300 299 298 298 299 300 303 305 307 310 312 313 315 316 316 317 317
307 307 307 306 305 305 304 303 303 303 303 304 305 306 307 307 308 308 308 308 308 307 307 307 307 306 305 305 305 304 302 299 295 289 283 277 273 270 270 272 276 280 286 291 298 304 307 307 305 302 298 294 292 289 287 286 285 286 288 290 293 294 294 296 297 297 298 297 296 297 298 299 302 304 308 310 312 314 315 316 317 317 317 318 319
305 305 305 304 304 303 302 302 302 302 303 304 305 306 307 307 307 306 307 307 306 305 305 305 305 304 303 304 303 302 300 296 291 284 277 272 269 268 267 270 275 280 285 291 298 304 309 309 307 302 296 293 291 289 287 286 286 288 291 293 293 293 294 296 296 296 297 298 299 301 303 305 307 309 311 313 315 317 317 317 317 317 318 320 320
304 304 304 303 303 302 302 302 302 302 303 304 305 306 306 306 305 305 305 305 304 304 303 303 302 302 301 302 301 300 297 293 288 281 273 268 266 265 267 271 275 280 284 290 298 305 310 311 309 304 298 292 289 287 286 286 288 290 293 294 294 294 294 295 295 296 298 300 303 305 307 309 312 314 315 317 317 318 317 316 317 319 320 322 323
305 304 304 303 302 302 301 302 302 303 304 305 305 305 305 304 304 304 304 304 303 302 301 300 300 300 299 300 299 298 295 290 285 278 271 266 263 263 266 271 275 280 284 290 297 304 308 310 308 304 298 292 288 285 284 286 288 290 293 294 294 294 294 294 295 297 299 303 305 308 310 313 315 316 317 317 316 316 316 316 318 320 322 323 325
306 305 304 303 302 302 302 302 303 303 304 305 305 305 304 303 303 302 302 302 301 300 299 298 298 297 297 298 298 296 292 287 281 275 269 265 262 261 265 269 274 279 284 290 296 300 305 307 306 302 297 291 289 286 285 287 289 290 292 291 291 292 293 294 296 298 301 304 306 309 311 313 315 315 314 313 313 313 315 316 318 320 321 324 326
306 305 304 302 302 302 302 303 303 304 304 304 304 304 303 303 302 302 301 301 299 298 297 296 296 295 296 296 295 293 288 283 277 270 265 262 260 260 263 266 272 279 286 290 294 299 304 306 305 300 295 291 289 288 288 289 289 290 290 290 290 292 293 294 297 299 302 305 307 309 312 312 313 312 311 310 311 312 314 315 317 319 320 322 325
306 305 303 302 302 302 302 303 304 304 304 304 304 304 303 302 302 301 301 299 298 297 296 295 294 294 294 294 292 289 285 278 271 264 260 258 257 258 261 265 272 280 286 290 294 300 304 305 303 298 293 290 288 287 287 288 288 289 289 290 291 293 294 295 297 299 302 305 307 309 311 311 311 311 310 310 311 312 313 315 316 318 319 320 321
305 304 303 302 302 302 302 303 304 304 304 304 303 303 303 303 302 301 300 298 296 296 295 294 293 292 292 291 290 286 281 275 267 259 255 255 255 257 260 266 273 279 284 289 295 300 304 304 302 297 291 289 288 288 288 288 288 289 291 292 293 294 294 295 296 299 302 305 308 310 311 310 309 309 310 310 311 312 314 315 317 318 318 318 320
304 304 303 302 302 302 303 304 304 304 304 304 304 304 303 303 302 300 298 297 296 294 293 292 292 290 289 290 288 284 279 272 264 257 254 254 255 256 260 266 271 277 282 288 294 298 302 304 301 295 289 286 286 286 286 287 288 290 292 293 293 293 293 294 297 300 304 306 308 309 309 309 308 308 309 311 312 313 314 316 317 318 319 319 321
303 303 302 302 302 302 303 303 304 304 304 304 304 304 303 302 301 299 298 296 295 293 292 291 290 288 288 288 286 282 275 269 265 261 257 255 255 256 259 264 269 276 282 286 291 296 300 302 299 293 288 286 285 285 286 287 290 292 292 293 293 292 292 295 298 302 305 307 308 308 308 307 307 308 309 311 312 313 315 316 317 318 319 320 321
302 302 301 301 301 301 302 303 304 304 305 305 305 304 303 303 301 299 298 296 294 293 291 290 289 288 286 285 282 278 273 269 267 264 258 254 253 255 258 263 269 276 281 286 291 296 299 300 297 292 287 284 284 286 287 289 291 292 292 292 292 292 294 297 300 304 306 307 307 307 306 306 306 308 310 311 312 314 315 316 318 319 320 321 321
301 300 300 300 300 301 302 303 304 305 305 305 305 304 304 303 301 300 298 296 294 293 291 290 289 288 285 282 279 275 270 265 263 259 255 253 253 254 258 263 269 276 282 287 291 295 298 298 294 288 284 284 284 286 288 289 290 291 291 291 291 293 296 299 302 305 306 306 306 305 306 307 308 309 311 312 313 315 316 317 318 319 320 321 321
299 299 299 299 300 302 302 303 304 305 305 306 306 305 304 303 302 300 298 296 295 293 291 290 289 287 284 280 277 273 266 260 257 253 250 251 252 254 258 263 269 276 282 287 290 294 296 297 292 286 284 284 285 286 287 288 289 289 290 292 293 295 298 300 302 304 304 304 305 306 308 310 310 311 312 314 316 318 318 318 319 319 320 321 321
298 298 298 299 300 301 302 303 304 305 306 307 306 306 305 304 302 301 299 297 294 292 290 289 287 285 282 278 274 269 263 257 253 250 247 248 250 253 257 262 268 275 282 287 291 294 297 296 291 286 284 284 286 286 287 288 288 289 291 294 295 297 299 300 301 301 302 304 306 308 310 311 311 312 314 316 318 319 320 320 320 320 320 321 321
296 296 296 297 298 299 301 302 304 305 306 307 307 306 305 304 302 301 299 296 293 290 288 287 285 283 280 276 271 267 261 255 250 247 245 246 248 252 256 261 268 274 280 286 290 294 296 295 289 284 283 284 285 287 287 287 288 290 292 295 296 297 299 299 300 301 303 306 308 310 311 312 312 313 316 318 319 320 320 320 321 321 322 322 322
295 295 295 296 298 299 301 303 304 305 306 307 307 307 306 304 303 300 296 293 290 287 286 285 284 282 279 275 271 267 262 255 249 245 244 244 246 251 256 261 267 273 278 284 289 293 295 293 287 283 283 285 286 286 286 287 288 291 293 295 296 297 298 299 300 302 305 308 310 311 312 313 314 315 317 320 321 321 321 321 321 322 322 322 322
294 294 295 296 298 299 301 302 303 304 305 306 306 306 305 304 302 298 294 290 287 285 284 284 282 280 277 274 271 267 263 257 251 246 244 244 246 251 256 261 266 272 278 284 289 292 292 289 285 283 284 285 285 285 286 288 290 292 293 294 294 295 296 298 301 304 308 310 311 313 315 315 316 317 319 322 322 321 321 322 322 323 323 323 323
293 293 294 296 297 298 299 300 301 302 303 303 303 303 302 301 299 297 293 288 285 284 283 282 281 279 275 271 268 266 263 257 252 248 246 246 248 251 256 261 266 273 279 284 288 290 288 284 281 282 284 284 285 286 287 289 291 292 292 292 293 294 296 299 302 305 309 311 314 316 316 316 317 318 321 322 322 321 322 322 322 323 323 323 324
292 293 293 294 295 297 297 298 298 298 299 300 300 299 299 298 297 295 292 287 283 281 281 281 279 276 272 268 265 264 261 256 252 249 248 248 248 251 255 261 268 274 279 283 286 287 284 279 278 280 282 284 286 287 288 288 289 290 290 291 293 294 297 300 303 307 311 314 316 316 316 317 319 320 322 322 321 321 322 322 323 323 323 324 324
291 291 292 293 294 294 294 295 295 295 296 296 296 296 296 295 294 292 289 285 281 280 280 280 278 273 268 265 262 261 258 255 251 247 246 246 248 252 257 263 269 274 278 282 285 285 280 276 276 279 282 284 285 286 286 286 287 288 289 291 294 296 298 302 306 310 313 316 317 317 318 319 321 322 322 321 321 321 322 323 323 323 323 324 324
289 289 290 290 291 291 291 292 292 292 292 293 293 293 293 291 290 287 285 282 279 278 278 278 275 270 265 262 259 257 255 251 248 246 245 247 249 254 259 264 269 274 278 282 284 282 277 274 276 280 282 283 283 284 284 285 287 288 290 292 295 297 301 304 308 312 315 317 318 318 319 320 321 321 321 321 321 322 323 323 324 324 324 324 324
287 287 288 288 288 288 289 289 289 289 290 290 290 290 289 287 285 283 281 278 276 275 276 275 272 268 263 259 257 255 252 250 248 247 247 249 251 255 259 264 268 273 278 281 282 279 275 274 277 280 282 282 282 283 284 285 287 289 291 294 297 300 303 306 310 313 316 318 318 319 320 321 321 321 321 321 321 322 323 323 324 324 324 325 325
287 287 287 287 287 287 287 287 288 288 288 288 288 287 285 284 282 280 278 275 273 273 273 272 269 265 261 257 254 252 250 249 248 247 248 250 252 255 259 264 269 273 278 280 279 275 272 274 277 279 281 281 282 282 284 285 287 290 293 296 299 302 305 308 311 314 316 318 319 320 320 320 320 321 322 322 321 322 323 324 324 324 325 325 326
289 289 288 288 288 288 287 287 287 287 287 287 286 285 283 282 280 277 274 272 270 270 269 267 264 261 257 254 251 249 248 248 247 247 248 250 252 256 260 265 269 274 277 277 273 269 270 274 277 279 280 281 282 283 284 286 288 291 294 298 301 304 307 310 312 314 317 319 320 320 320 321 321 322 322 322 322 322 324 324 324 325 325 326 328
291 291 290 290 289 289 288 287 287 286 285 285 284 283 281 279 276 273 271 269 268 266 264 262 259 256 253 250 248 246 245 244 244 245 246 249 252 257 261 265 270 273 273 270 266 266 270 274 276 278 279 280 281 283 285 287 290 293 296 300 303 306 308 311 313 315 317 318 319 319 320 321 322 322 322 322 322 323 325 325 325 325 326 328 330
293 293 292 291 290 289 288 286 285 284 284 283 282 281 279 276 273 271 268 267 265 263 260 257 254 251 248 245 243 241 241 241 241 243 245 248 252 257 261 266 269 270 267 263 262 266 271 274 275 277 278 279 281 283 285 289 292 295 298 302 304 306 309 312 314 316 317 317 319 321 322 322 323 323 323 324 324 325 326 326 326 327 328 330 332
295 294 293 292 291 289 288 287 285 284 283 282 281 279 276 273 271 268 266 264 262 258 255 251 248 245 242 239 237 236 237 238 239 242 245 248 253 258 262 265 266 263 260 258 261 267 272 273 274 276 278 279 281 284 287 290 294 296 300 303 305 308 311 313 315 316 317 319 321 322 322 323 324 325 325 326 326 326 326 326 327 329 331 332 333
295 295 294 293 292 291 289 288 287 286 285 283 281 278 275 271 268 265 263 261 258 254 250 246 242 239 237 234 232 233 234 236 239 242 246 250 254 258 261 262 260 256 255 258 264 269 272 272 274 275 277 279 282 286 289 292 295 298 301 305 307 310 313 315 316 317 319 320 322 323 323 325 326 326 327 327 326 325 326 328 330 331 333 334 335
296 296 295 294 293 292 292 291 290 289 287 284 281 278 274 271 267 264 261 257 253 249 245 240 237 235 232 230 230 231 232 236 239 243 247 251 254 256 258 257 253 252 255 260 266 269 270 270 272 273 275 279 283 287 290 295 298 301 304 307 310 313 315 317 318 319 320 321 323 324 325 326 327 328 327 326 325 326 328 331 332 333 334 335 336
298 297 297 296 295 294 293 293 292 291 289 286 282 278 274 270 266 262 257 253 249 244 240 237 234 231 229 229 229 230 233 237 240 244 248 251 253 254 253 250 248 251 256 262 265 267 267 268 270 271 275 279 283 288 292 296 299 302 305 309 312 315 316 317 318 319 320 322 324 325 326 327 328 328 327 326 326 328 331 333 334 335 335 336 336
300 299 299 298 297 296 295 295 294 293 291 288 283 278 273 269 264 259 254 249 245 241 237 234 231 229 228 228 229 231 234 237 241 244 247 249 250 248 245 244 246 252 258 262 264 264 265 266 268 270 274 279 283 288 292 295 299 303 307 310 313 315 316 317 319 320 321 323 324 325 326 327 327 327 327 327 329 331 333 334 335 336 336 337 336
302 301 300 300 299 298 298 297 297 296 293 289 284 278 273 267 262 255 249 244 240 237 235 232 231 230 229 229 229 232 234 237 240 244 245 245 243 241 240 243 249 254 258 260 261 261 262 264 266 270 274 279 283 287 291 295 300 304 307 310 313 314 316 317 319 320 322 324 325 326 326 327 327 328 329 330 331 332 334 336 337 337 337 337 336